EW3511 Weather Reports


Display with metric or nautical units.
time (UTC)temp
F
wind
direction
speed
MPH
gust
MPH
rain 1hr
in
rain 24hr
in
rain mn
in
humidity
%
barometer
mb
20260906025048 56 81 0.0 1.0 0.00 0.22 0.00 99 1026.0
20260906024047 55 0.0 1.0 0.00 0.22 0.00 99 1026.0
20260906023107 55 0.0 1.0 0.00 0.22 0.00 99 1026.1
20260906022107 55 29 2.0 3.0 0.00 0.22 0.00 99 1026.0
20260906021048 55 68 1.0 2.0 0.00 0.22 0.00 99 1026.1
20260906020049 56 342 2.0 3.0 0.00 0.22 0.00 99 1026.0
20260906015049 56 333 2.0 3.0 0.00 0.22 0.00 99 1026.0
20260906014049 56 339 2.0 3.0 0.00 0.22 0.00 99 1025.9
20260906011053 58 325 3.0 5.0 0.00 0.22 0.00 96 1025.8
20260906010053 58 6 2.0 3.0 0.00 0.22 0.00 95 1025.9
20260906005054 59 22 4.0 7.0 0.00 0.22 0.00 95 1025.9
20260906004054 59 17 3.0 7.0 0.00 0.22 0.00 95 1025.7
20260906003055 60 15 2.0 3.0 0.00 0.22 0.00 91 1025.7
20260906002115 61 63 1.0 2.0 0.00 0.22 0.00 91 1025.6
20260906001056 61 135 1.0 1.0 0.00 0.22 0.00 91 1025.7
20260906000116 61 131 0.0 2.0 0.00 0.22 0.00 91 1025.7
20260905235057 60 128 0.0 1.0 0.00 0.22 0.00 92 1025.8
20260905234058 60 128 1.0 1.0 0.00 0.22 0.00 92 1025.8
20260905233058 60 136 0.0 1.0 0.00 0.22 0.00 92 1025.7
20260905232108 60 129 0.0 1.0 0.00 0.22 0.00 93 1025.8
20260905231058 59 152 1.0 2.0 0.00 0.22 0.00 96 1025.8
20260905230059 59 139 0.0 2.0 0.00 0.22 0.00 96 1025.7
20260905225059 59 0.0 0.0 0.00 0.22 0.00 96 1025.6
20260905224101 59 0.0 0.0 0.00 0.22 0.00 94 1025.5
20260905223101 60 0.0 0.0 0.00 0.22 0.00 93 1025.4
20260905222102 61 148 1.0 2.0 0.00 0.22 0.00 92 1025.5
20260905221121 61 191 1.0 3.0 0.00 0.22 0.00 91 1025.5
20260905215103 61 268 2.0 6.0 0.00 0.22 0.22 90 1025.3
20260905214103 61 80 1.0 2.0 0.00 0.22 0.22 91 1025.3
20260905213103 62 339 0.0 2.0 0.00 0.22 0.22 90 1025.3
20260905212104 62 47 1.0 3.0 0.00 0.22 0.22 90 1025.2
20260905211103 61 60 1.0 2.0 0.00 0.22 0.22 92 1025.1
20260905210104 61 63 1.0 3.0 0.00 0.22 0.22 92 1025.1
20260905205104 61 57 2.0 3.0 0.00 0.22 0.22 92 1025.0
20260905204125 62 72 1.0 3.0 0.00 0.22 0.22 91 1025.0
20260905203037 63 72 1.0 3.0 0.00 0.22 0.22 89 1024.9
20260905202038 64 59 1.0 3.0 0.00 0.22 0.22 86 1024.7
20260905201039 64 353 2.0 5.0 0.00 0.22 0.22 85 1024.7
20260905200038 65 296 3.0 6.0 0.00 0.22 0.22 84 1024.7
20260905195039 65 39 2.0 7.0 0.00 0.22 0.22 83 1024.5
20260905194040 66 264 4.0 11.0 0.00 0.22 0.22 82 1024.3
20260905193041 66 258 5.0 14.0 0.00 0.22 0.22 82 1024.2
20260905192040 66 256 4.0 11.0 0.00 0.22 0.22 83 1024.1
20260905191120 66 243 3.0 8.0 0.00 0.22 0.22 85 1023.9
20260905185042 67 187 3.0 8.0 0.00 0.22 0.22 85 1023.7
20260905184101 67 235 5.0 11.0 0.00 0.22 0.22 85 1023.6
20260905183042 67 219 5.0 10.0 0.00 0.22 0.22 86 1023.5
20260905182102 66 198 3.0 8.0 0.00 0.22 0.22 88 1023.3
20260905181043 66 185 3.0 7.0 0.00 0.22 0.22 89 1023.2
20260905180044 66 206 2.0 6.0 0.00 0.22 0.22 88 1023.1
20260905175044 67 216 2.0 7.0 0.00 0.22 0.22 87 1023.2
20260905174104 67 185 2.0 5.0 0.00 0.22 0.22 87 1023.1
20260905173045 67 202 2.0 5.0 0.00 0.22 0.22 86 1022.9
20260905172045 68 213 3.0 6.0 0.00 0.22 0.22 85 1022.9
20260905171114 69 206 2.0 6.0 0.00 0.22 0.22 83 1022.9
20260905170046 69 224 3.0 7.0 0.00 0.22 0.22 83 1022.9
20260905165046 69 191 3.0 8.0 0.00 0.22 0.22 82 1022.9
20260905164107 70 212 3.0 7.0 0.00 0.22 0.22 81 1022.9
20260905163047 70 210 2.0 7.0 0.00 0.22 0.22 79 1022.7
20260905162048 70 213 2.0 9.0 0.00 0.22 0.22 79 1022.8
20260905161048 70 228 5.0 11.0 0.00 0.22 0.22 79 1022.8
20260905160108 70 244 4.0 9.0 0.00 0.22 0.22 79 1022.8
20260905155049 70 278 3.0 8.0 0.00 0.22 0.22 78 1022.7
20260905154109 70 262 5.0 10.0 0.00 0.22 0.22 78 1022.8
20260905153104 70 259 4.0 9.0 0.00 0.22 0.22 78 1022.8
20260905152051 69 235 6.0 14.0 0.00 0.22 0.22 79 1022.9
20260905151050 70 216 4.0 9.0 0.00 0.22 0.22 76 1022.8
20260905150059 70 240 5.0 13.0 0.00 0.23 0.22 75 1022.9
20260905145051 69 242 6.0 14.0 0.00 0.23 0.22 75 1022.9
20260905144052 69 224 4.0 10.0 0.00 0.23 0.22 76 1022.9
20260905143052 69 251 5.0 11.0 0.00 0.23 0.22 77 1022.9
20260905142053 69 236 5.0 9.0 0.00 0.23 0.22 78 1022.9
20260905140553 67 226 5.0 11.0 0.00 0.23 0.22 80 1023.2
20260905135554 68 239 5.0 10.0 0.00 0.23 0.22 81 1023.2
20260905134554 67 208 5.0 13.0 0.00 0.23 0.22 82 1023.3
20260905133555 66 241 4.0 10.0 0.00 0.23 0.22 83 1023.4
20260905132615 65 265 4.0 8.0 0.00 0.23 0.22 87 1023.4
20260905131555 64 219 4.0 11.0 0.00 0.23 0.22 89 1023.3
20260905130555 63 247 3.0 10.0 0.00 0.23 0.22 91 1023.3
20260905125556 63 251 4.0 13.0 0.00 0.23 0.22 92 1023.4
20260905124557 63 226 6.0 11.0 0.00 0.23 0.22 92 1023.4
20260905123557 63 224 4.0 8.0 0.00 0.23 0.22 94 1023.3
20260905122557 63 222 3.0 6.0 0.00 0.23 0.22 96 1023.2
20260905121558 63 173 3.0 6.0 0.00 0.23 0.22 95 1023.0
20260905120558 62 226 3.0 6.0 0.00 0.23 0.22 94 1023.1
20260905115618 62 238 3.0 8.0 0.00 0.23 0.22 93 1023.3
20260905114719 62 156 1.0 5.0 0.00 0.23 0.22 95 1023.1
20260905113600 62 207 3.0 7.0 0.01 0.23 0.22 96 1023.0
20260905112620 62 198 2.0 6.0 0.01 0.23 0.22 96 1023.1
20260905111620 61 171 2.0 7.0 0.01 0.23 0.22 97 1023.1
20260905110615 61 210 2.0 5.0 0.01 0.23 0.22 96 1023.2
20260905105601 60 193 3.0 7.0 0.01 0.23 0.22 95 1022.9
20260905104602 60 144 2.0 5.0 0.02 0.23 0.22 97 1023.1
20260905103604 60 261 2.0 5.0 0.05 0.22 0.21 98 1023.1
20260905102606 59 183 2.0 6.0 0.07 0.22 0.21 98 1023.1
20260905101603 59 142 1.0 3.0 0.12 0.22 0.21 99 1023.0
20260905100604 58 159 1.0 5.0 0.15 0.22 0.21 99 1023.0
20260905095625 59 147 1.0 3.0 0.15 0.22 0.21 99 1023.1
20260905094624 58 144 1.0 3.0 0.14 0.21 0.20 99 1023.1
20260905093605 59 177 3.0 7.0 0.10 0.17 0.16 99 1023.2
20260905092607 59 170 2.0 6.0 0.08 0.15 0.14 98 1023.0
20260905091618 60 180 1.0 5.0 0.03 0.10 0.09 94 1022.8
20260905090606 60 183 3.0 5.0 0.00 0.07 0.06 93 1022.9
20260905085607 61 143 1.0 2.0 0.00 0.07 0.06 92 1022.9
20260905084607 61 161 4.0 6.0 0.00 0.07 0.06 91 1022.6
20260905083647 60 167 3.0 7.0 0.00 0.07 0.06 91 1022.7
20260905082608 60 168 1.0 3.0 0.00 0.07 0.06 95 1022.7
20260905081648 60 93 0.0 2.0 0.00 0.07 0.06 94 1022.6
20260905080608 59 117 2.0 3.0 0.00 0.07 0.06 94 1022.6
20260905075609 59 125 1.0 2.0 0.00 0.07 0.06 95 1022.5
20260905074537 59 111 2.0 3.0 0.00 0.07 0.06 94 1022.4
20260905073558 59 153 3.0 5.0 0.00 0.07 0.06 94 1022.2
20260905072559 58 142 2.0 5.0 0.01 0.07 0.06 94 1022.3
20260905071539 58 105 0.0 2.0 0.01 0.07 0.06 97 1022.2
20260905070539 58 139 0.0 3.0 0.01 0.07 0.06 98 1022.2
20260905065540 57 173 3.0 6.0 0.03 0.07 0.06 98 1022.0
20260905064600 57 164 4.0 7.0 0.03 0.07 0.06 98 1021.7
20260905063541 57 170 7.0 10.0 0.03 0.07 0.06 98 1021.7
20260905062542 58 178 5.0 8.0 0.02 0.06 0.05 96 1022.2
20260905061542 58 173 3.0 7.0 0.02 0.06 0.05 96 1022.1
20260905060543 58 152 3.0 6.0 0.03 0.06 0.05 95 1022.0
20260905055542 58 152 2.0 5.0 0.02 0.04 0.03 95 1022.1
20260905054543 58 137 2.0 5.0 0.03 0.04 0.03 95 1022.1
20260905053544 58 157 3.0 6.0 0.03 0.04 0.03 95 1022.1
20260905052543 58 83 0.0 2.0 0.03 0.04 0.03 95 1021.8
20260905051604 58 52 2.0 8.0 0.03 0.04 0.03 93 1021.6
20260905050544 59 42 4.0 10.0 0.02 0.03 0.02 88 1021.8
20260905045605 63 10 8.0 20.0 0.01 0.02 0.01 75 1021.1
20260905044545 64 29 4.0 9.0 0.00 0.01 0.00 68 1020.4
20260905043545 65 44 5.0 9.0 0.00 0.01 0.00 68 1020.4
20260905042546 65 22 3.0 9.0 0.00 0.01 0.00 70 1020.1
20260905041546 65 32 2.0 8.0 0.00 0.01 0.00 74 1019.7
20260905040547 66 26 3.0 8.0 0.00 0.01 0.00 76 1019.3
20260905035547 66 27 6.0 10.0 0.00 0.01 0.00 76 1018.9
20260905034548 67 29 7.0 15.0 0.00 0.01 0.00 76 1018.5
20260905033548 67 31 7.0 18.0 0.00 0.01 0.00 76 1018.5
20260905032548 69 16 7.0 15.0 0.00 0.01 0.00 73 1018.0
20260905031548 70 48 2.0 5.0 0.00 0.01 0.00 73 1017.7
20260905030549 70 93 1.0 2.0 0.00 0.01 0.00 74 1017.5